Regional Weather Roundup
Issued by NWS

Home | Current Version | Previous Version | Graphics & Text | Print | Product List | Glossary On
Versions: 1 2 3 4 5 6 7 8 9 10 11 12 13 14 15 16 17 18 19 20 21 22 23 24 25 26 27 28 29 30 31 32 33 34 35 36 37 38 39 40 41 42 43 44 45 46 47 48 49 50
000
ASUS43 KOAX 280510
RWRNE

WEATHER ROUNDUP FOR NEBRASKA
NATIONAL WEATHER SERVICE OMAHA NE
1200 AM CDT WED SEP 28 2016

NOTES: SATELLITE DATA IS BEING USED TO AUGMENT CLOUD COVER ABOVE
       12000 FEET.
       "FAIR" INDICATES FEW OR NO CLOUDS BELOW 12,000 FEET WITH NO
       SIGNIFICANT WEATHER AND/OR OBSTRUCTIONS TO VISIBILITY.

  * THESE STATIONS DO NOT REPORT WEATHER SUCH AS RAIN...SNOW OR FOG.

NEZ001>004-019>022-054>056-280600-
NEBRASKA PANHANDLE

CITY           SKY/WX    TMP DP  RH WIND       PRES   REMARKS
SCOTTSBLUFF    CLEAR     54  42  64 N3        30.13R
ALLIANCE       CLEAR     49  39  68 NE3       30.11R
CHADRON        CLEAR     52  44  74 SW3       30.10R
KIMBALL        CLEAR     52  39  62 NW10      30.19R
SIDNEY         CLEAR     50  36  58 NW7       30.14R
$$

NEZ057>060-069>072-079>082-280600-
SOUTHWEST NEBRASKA

CITY           SKY/WX    TMP DP  RH WIND       PRES   REMARKS
NORTH PLATTE   CLEAR     50  42  74 CALM      30.04R
IMPERIAL       CLEAR     57  36  45 NW6       30.06R
LEXINGTON      CLEAR     53  45  74 W6        30.01R
MCCOOK         CLEAR     56  45  66 W5        30.01R
OGALLALA       CLEAR     52  43  72 W3        30.07R
$$

NEZ005>010-023>029-035>040-094-280600-
NORTH CENTRAL NEBRASKA

CITY           SKY/WX    TMP DP  RH WIND       PRES   REMARKS
VALENTINE      CLEAR     50  40  68 W3        30.03R
AINSWORTH      CLEAR     53  45  76 W3        30.03R
BROKEN BOW     CLEAR     51  42  71 N8        30.01R
O`NEILL        CLEAR     54  44  69 NW6       29.99R
ORD            CLEAR     51  43  74 NW3       29.97S
THEDFORD       CLEAR     55  44  67 CALM      30.05R
$$

NEZ041-046>049-061>064-073>077-083>087-280600-
SOUTH CENTRAL NEBRASKA

CITY           SKY/WX    TMP DP  RH WIND       PRES   REMARKS
GRAND ISLAND   CLEAR     53  47  79 NW5       29.96S
AURORA         CLEAR     55  49  79 N6        29.95R
HASTINGS       CLEAR     59  47  64 NW3       29.97R
HEBRON         CLEAR     55  50  82 CALM      29.92R
HOLDREGE       CLEAR     56  46  67 N5        29.99R
KEARNEY *      CLEAR     61  43  51 N8        29.98R
YORK           CLEAR     54  48  82 MISG      29.95R
$$

NEZ011>018-030>034-042>045-280600-
NORTHEAST NEBRASKA

CITY           SKY/WX    TMP DP  RH WIND       PRES   REMARKS
NORFOLK        CLEAR     53  45  74 W7        29.94R
ALBION         CLEAR     51  46  80 N6        29.97R
BLAIR          CLEAR     59  48  65 NW6       29.90R
FREMONT        CLEAR     53  48  84 W3        29.91R
TEKAMAH        CLEAR     55  48  77 NW9       29.90R
WAYNE          CLEAR     47  44  88 CALM      29.94R
$$

NEZ050>053-065>068-078-088>093-280600-
SOUTHEAST NEBRASKA

CITY           SKY/WX    TMP DP  RH WIND       PRES   REMARKS
LINCOLN        CLEAR     54  51  90 N5        29.91S
OMAHA EPPLEY   CLEAR     55  50  83 N5        29.89R
BEATRICE       CLEAR     57  51  79 CALM      29.90R
FALLS CITY     CLEAR     56  53  90 NW3       29.86F
NEBRASKA CITY  CLEAR     62  40  44 W6        29.89R
PLATTSMOUTH    CLEAR     61  43  51 W6        29.89R
$$

NEZ044-045-051>053-067-280600-
OMAHA AREA

CITY           SKY/WX    TMP DP  RH WIND       PRES   REMARKS
OMAHA EPPLEY   CLEAR     55  50  83 N5        29.89R
BLAIR          CLEAR     59  48  65 NW6       29.90R
FREMONT        CLEAR     53  48  84 W3        29.91R
MILLARD        CLEAR     56  53  89 CALM      29.89R
OFFUTT AFB     CLEAR     58  52  81 W6        29.87S
PLATTSMOUTH    CLEAR     61  43  51 W6        29.89R
WAHOO          FAIR      57  49  75 NW8       29.91R
$$




USA.gov is the U.S. government's official web portal to all federal, state and local government web resources and services.